Flag for Canada Past Weather in Portage la Prairie, Manitoba, Canada — Yesterday and Last 2 Weeks

Now
70 °F

Scattered clouds.


Feels Like: 70 °F
Forecast: N/A
Wind: 9 mph from Southwest

Location: Portage Southport A

Current Time: Aug 24, 2016 at 6:35:24 PM

Latest Report: Aug 24, 2016 at 6:00 PM


Visibility: 15 mi

Pressure: 29.81 "Hg

Humidity: 60%

Dew Point: 55 °F

Location of Portage la PrairieLocation

Past Weather in Portage la Prairie — Graph

°F

Portage la Prairie Temperature Yesterday

Maximum temperature yesterday: 75 °F (at 3:00 PM)
Minimum temperature yesterday: 61 °F (at 6:00 AM)
Average temperature yesterday: 70 °F

High & Low Weather Summary for the Past Weeks

 TemperatureHumidityPressure
High88 °F (Aug 22, 4:00 PM)100% (Aug 11, 6:00 AM)30.04 "Hg (Aug 11, 6:00 AM)
Low50 °F (Aug 10, 6:00 AM)37% (Aug 18, 4:00 PM)29.59 "Hg (Aug 23, 10:00 AM)
Average69 °F74%29.86 "Hg
* Reported Aug 9 5:00 PM — Aug 24 5:00 PM, Portage la Prairie, Weather by CustomWeather, © 2016

Note: Actual official high and low records may vary slightly from our data, if they occured in-between our weather recording intervals... More about our weather records

Advertising

Portage la Prairie Weather History for the Previous 24 Hours

Scroll right to see more
 ConditionsComfort  
Time TempWeatherWind HumidityBarometerVisibility
5:00 PM
Wed, Aug 24
72 °FScattered clouds.10 mph53%29.80 "Hg15 mi
4:00 PM72 °FBroken clouds.16 mph53%29.79 "Hg15 mi
3:00 PM72 °FBroken clouds.13 mph50%29.79 "Hg15 mi
2:00 PM70 °FBroken clouds.16 mph53%29.80 "Hg15 mi
1:00 PM68 °FScattered clouds.20 mph60%29.80 "Hg15 mi
12:00 PM66 °FScattered clouds.18 mph64%29.80 "Hg15 mi
11:00 AM64 °FScattered clouds.18 mph68%29.79 "Hg15 mi
10:00 AM63 °FPassing clouds.20 mph73%29.79 "Hg15 mi
9:00 AM61 °FPassing clouds.15 mph77%29.79 "Hg15 mi
8:00 AM57 °FPassing clouds.8 mph82%29.79 "Hg15 mi
7:00 AM55 °FPassing clouds.12 mph88%29.77 "Hg15 mi
6:00 AM55 °FPassing clouds.2 mph88%29.76 "Hg15 mi
12:00 AM66 °FPassing clouds.9 mph94%29.74 "Hg15 mi
11:00 PM
Tue, Aug 23
66 °FPassing clouds.8 mph94%29.73 "Hg15 mi
10:00 PM66 °FPassing clouds.6 mph94%29.72 "Hg15 mi
9:00 PM66 °FPartly sunny.10 mph94%29.69 "Hg15 mi
8:00 PM68 °FSprinkles. Cloudy.15 mph94%29.68 "Hg8 mi
7:00 PM73 °FMostly cloudy.5 mph83%29.67 "Hg12 mi
6:00 PM75 °FPartly sunny.7 mph83%29.66 "Hg12 mi
Weather by CustomWeather, © 2016

See weather overviewHow to use our weather pages